Content
SEND FEEDBACK

Daily
Averages
Monthly
Summary
France

LYON, FRANCE


Home > Europe > France
Elevation: 659 feet     Latitude: 45 43N     Longitude: 004 57E

WEATHER
 
SELECT A DAY
Number of Records: 153,989;   Date Range: 7/1/96 - 8/31/14
 
SHARE

PRINT THIS DATA

[ ← Previous Day ]
WEATHER ALMANAC - OCTOBER 1, 2013
[ Next Day → ]
[ °C ]   °F
Weather ElementAverageHighLow
Temperature62.6 °F69.8 °F (2:30 pm)59 °F (2:00 am)
Dewpoint58.3 °F60.8 °F (1:30 pm)55.4 °F (8:00 am)
Humidity86.4 %94 % (12:30 am)68 % (5:00 pm)
Barometer29.80 in29.86 in (9:30 pm)29.77 in (12:30 am)
Wind Speed2.4 mph8.1 mph (8:30 am)
Weather ElementAverage
Visibility5.6 mi
Wind DirectionNE (45.7 °)

Weather ElementTotal
Precipitation---
Heating Degree Days0.6 (Base 65)
Growing Degree Days14.4 (Base 50)
Averaged from 47 records on October 1, 2013
WEATHER CONDITIONS BREAKOUT
WIND DIRECTION BREAKOUT
WEATHER BY HOUR - OCTOBER 1, 2013
[ °C ]   °F
Local TimeTemperatureDewpointHumidityBarometerVisibilityWind DirectionWind SpeedGust SpeedPrecipitationEventsConditions
12:30 AM60.8 °F59.0 °F94 %29.77 in6.2 miSSE (160°)2.3 mphOvercast
1:00 AM60.8 °F57.2 °F88 %29.77 in6.2 miCalm
1:30 AM60.8 °F57.2 °F88 %29.77 in6.2 miCalm
2:00 AM59.0 °F57.2 °F94 %29.77 in6.2 miSouth (170°)1.2 mph
2:30 AM59.0 °F57.2 °F94 %29.77 in6.2 miVariable2.3 mph
3:00 AM59.0 °F57.2 °F94 %29.77 in6.2 miCalm
3:30 AM59.0 °F57.2 °F94 %29.77 in6.2 miSSW (210°)2.3 mph
4:00 AM59.0 °F57.2 °F94 %29.77 in6.2 miCalm
4:30 AM59.0 °F57.2 °F94 %29.77 in6.2 miCalm
5:00 AM59.0 °F57.2 °F94 %29.77 in6.2 miESE (110°)3.5 mph
5:30 AM59.0 °F57.2 °F94 %29.77 in6.2 miCalmOvercast
6:00 AM59.0 °F57.2 °F94 %29.77 in6.2 miEast (100°)3.5 mphOvercast
6:30 AM59.0 °F57.2 °F94 %29.77 in6.2 miCalmOvercast
7:00 AM59.0 °F57.2 °F94 %29.77 in4.3 miNE (40°)3.5 mphOvercast
7:30 AM59.0 °F57.2 °F94 %29.77 in5.6 miNE (50°)1.2 mph
8:00 AM59.0 °F55.4 °F88 %29.77 in5.0 miEast (80°)4.6 mphOvercast
8:30 AM59.0 °F57.2 °F94 %29.77 inEast (90°)8.1 mphFogFog
9:00 AM59.0 °F57.2 °F94 %29.77 in0.3 miEast (80°)3.5 mphFogFog
9:30 AM59.0 °F57.2 °F94 %29.80 in0.7 miVariable2.3 mphMist
10:00 AM59.0 °F57.2 °F94 %29.80 in1.4 miVariable2.3 mphOvercast
10:30 AM59.0 °F57.2 °F94 %29.80 in4.3 miVariable2.3 mphOvercast
11:00 AM60.8 °F57.2 °F88 %29.80 in5.6 miCalmOvercast
11:30 AM60.8 °F59.0 °F94 %29.83 in3.7 miVariable1.2 mphOvercast
12:00 PM62.6 °F59.0 °F88 %29.83 in4.3 miVariable3.5 mphOvercast
12:30 PM64.4 °F59.0 °F83 %29.83 in6.2 miVariable2.3 mphOvercast
1:00 PM66.2 °F59.0 °F78 %29.80 in6.2 miNE (50°)4.6 mphPartly Cloudy
1:30 PM68.0 °F60.8 °F78 %29.80 in6.2 miENE (60°)4.6 mphPartly Cloudy
2:00 PM68.0 °F60.8 °F78 %29.80 in6.2 miEast (80°)6.9 mphScattered Clouds
2:30 PM69.8 °F60.8 °F73 %29.80 in6.2 miEast (80°)4.6 mphPartly Cloudy
3:00 PM68.0 °F60.8 °F78 %29.80 in6.2 miENE (70°)4.6 mphPartly Cloudy
3:30 PM68.0 °F59.0 °F73 %29.80 in6.2 miVariable3.5 mphMostly Cloudy
4:00 PM68.0 °F59.0 °F73 %29.80 in6.2 miNE (50°)3.5 mph
4:30 PM69.8 °F60.8 °F73 %29.80 in6.2 miENE (60°)5.8 mph
5:00 PM69.8 °F59.0 °F68 %29.80 in6.2 miEast (80°)4.6 mph
5:30 PM68.0 °F60.8 °F78 %29.80 in6.2 miENE (70°)5.8 mph
6:00 PM68.0 °F59.0 °F73 %29.80 in6.2 miEast (80°)3.5 mph
6:30 PM68.0 °F59.0 °F73 %29.80 in6.2 miEast (100°)3.5 mph
7:00 PM68.0 °F60.8 °F78 %29.80 in6.2 miEast (90°)3.5 mph
7:30 PM66.2 °F59.0 °F78 %29.83 in6.2 miCalm
8:00 PM64.4 °F59.0 °F83 %29.83 in6.2 miCalm
8:30 PM64.4 °F59.0 °F83 %29.83 in6.2 miVariable3.5 mph
9:00 PM62.6 °F59.0 °F88 %29.83 in6.2 miCalm
9:30 PM62.6 °F59.0 °F88 %29.86 in6.2 miCalm
10:00 PM60.8 °F59.0 °F94 %29.86 in6.2 miCalm
10:30 PM60.8 °F57.2 °F88 %29.86 in6.2 miNE (40°)1.2 mph
11:00 PM60.8 °F57.2 °F88 %29.86 in5.6 miCalm
11:30 PM60.8 °F57.2 °F88 %29.86 in5.0 miSSE (150°)1.2 mph
Hourly data recorded from LFLY, located miles away from Lyon, France







STORIES FROM OUR PARTNERS